Hourly Weather Roundup
Issued by NWS Central Illinois

Home | Current Version | Previous Version | Text Only | Print | Product List | Glossary On
Versions: 1 2 3 4 5 6 7 8 9 10 11 12 13 14 15 16 17 18 19 20 21 22 23 24 25 26 27 28 29 30 31 32 33 34 35 36 37 38 39 40 41 42 43 44 45 46 47 48 49 50
000
NZUS43 KILX 231710
HWRILX

AREA WEATHER ROUNDUP
NATIONAL WEATHER SERVICE, LINCOLN IL
1200 PM CDT TUE AUG 23 2016


CITY           SKY/WX    TMP DP  RH WIND       PRES   REMARKS
BLOOMINGTON    MOSUNNY   78  62  57 S13       30.22F HX  80
CHAMPAIGN      MOSUNNY   76  63  64 S10G20    30.23F
DANVILLE       PTSUNNY   76  62  62 S9        30.23F
DECATUR        MOSUNNY   79  63  57 S13G21    30.22F HX  80
EFFINGHAM      MOSUNNY   80  64  59 SE8       30.24F HX  81
FLORA          SUNNY     80  65  59 S9        30.24S HX  82
GALESBURG      SUNNY     78  64  62 S12       30.16F HX  80
JACKSONVILLE   CLOUDY    77  65  65 SE14G20   30.18F
LACON          PTSUNNY   78  60  54 S14       30.18F
LAWRENCEVILLE  SUNNY     80  61  52 SE10      30.25F HX  81
LITCHFIELD     CLOUDY    77  62  60 S12G17    30.21S
$$


CITY           SKY/WX    TMP DP  RH WIND       PRES   REMARKS
LINCOLN        MOSUNNY   80  64  57 S10G16    30.20F HX  81
MACOMB         PTSUNNY   77  65  65 S12G18    30.17F
MATTOON        SUNNY     78  61  55 S10       30.23F HX  80
MT CARMEL AP   SUNNY     80  61  52 S5        30.24F HX  81
OLNEY-NOBLE AP SUNNY     79  63  57 SE8       30.23F HX  80
PARIS          MOSUNNY   77  65  65 S5        30.26F
PEORIA         SUNNY     80  62  54 S12G21    30.18F HX  81
PONTIAC        PTSUNNY   79  66  64 S10       30.22F HX  81
RANTOUL        MOSUNNY   78  64  62 S13       30.23F HX  80
ROBINSON       MOSUNNY   77  65  64 S8        30.25F
SPRINGFIELD    CLOUDY    80  64  58 S12       30.19F HX  82
TAYLORVILLE    MOSUNNY   78  65  62 S13       30.21F HX  80
$$

...REGIONAL REPORTS...


CITY           SKY/WX    TMP DP  RH WIND       PRES   REMARKS
CHICAGO O`HARE PTSUNNY   78  61  55 S15       30.20F HX  80
KANKAKEE       MOSUNNY   78  62  57 S15       30.23F HX  80
MOLINE         SUNNY     79  64  60 S15G23    30.13F HX  81
MOUNT STERLING CLOUDY    75  63  67 S12G23    30.15F
MOUNT VERNON   MOSUNNY   81  63  54 S9        30.24F HX  82
PITTSFIELD     CLOUDY    74  66  77 SE10G20   30.18S
QUINCY         CLOUDY    77  67  71 S14       30.13F
ROCKFORD       PTSUNNY   77  62  59 S16G25    30.19F
$$


CITY           SKY/WX    TMP DP  RH WIND       PRES   REMARKS
BURLINGTON     PTSUNNY   78  65  63 S15       30.12F HX  80
CEDAR RAPIDS   SUNNY     77  69  76 SE12      30.09F
DES MOINES     PTSUNNY   81  67  62 S17G26    30.02F HX  83
KIRKSVILLE     CLOUDY    78  69  73 S12       30.10F HX  80
OTTUMWA        SUNNY     78  67  68 SE12      30.07F HX  80
ST LOUIS       LGT RAIN  72  66  81 SE14      30.19F
$$


CITY           SKY/WX    TMP DP  RH WIND       PRES   REMARKS
TERRE HAUTE    CLOUDY    80  60  50 S12       30.25F HX  81
EVANSVILLE     MOSUNNY   79  60  52 SE9       30.25F HX  80
INDIANAPOLIS   PTSUNNY   78  59  51 SW12      30.27F
LAFAYETTE      MOSUNNY   77  60  55 SW9       30.25F
MADISON        PTSUNNY   76  62  62 S16       30.14F
MILWAUKEE      PTSUNNY   82  60  47 SW14      30.17F HX  82
$$






USA.gov is the U.S. government's official web portal to all federal, state and local government web resources and services.